Location: Broletto
(44.6000°N, 10.5833°E)
Time: 03:15:04
(UTC+00:00)

USA 245 - Pass Details

Date: 18 April 2021
Orbit: 266 x 984 km, 97.9° (Epoch: 10 May)

Event Time Altitude Azimuth Distance (km) Brightness Sun altitude
Exits shadow 20:24:55 82° 133° (SE) 554 3.1 -22.1°
Maximum altitude 20:25:03 86° 78° (ENE) 548 3.1 -22.1°
Drops below altitude 10° 20:28:33 10° 348° (NNW) 1,624 6.5 -22.5°
Sets 20:30:21 0° 348° (NNW) 2,400 7.5 -22.7°
